User: anonymous   Login
Location: Melbourne
(37.8170°S, 144.9670°E)
Time: 10:44:45
(UTC+11:00)
Language:

Cosmos 1656 Rocket - Orbit

View from above orbital plane
View from above orbital plane
View from above satellite
View from above satellite

Ground track
Ground track

The orbit data is extracted from the following two-line orbital elements,

1 15772U 85042D   16044.88448803  .00000039  00000-0  39627-4 0  9992
2 15772  71.1081 288.1106 0033246  83.5483 350.9071 14.21159463591935
Epoch (UTC): 13 February 2016 21:13:39
Eccentricity: 0.0033246
inclination: 71.1081°
perigee height: 797 km
apogee height: 845 km
right ascension of ascending node: 288.1106°
argument of perigee: 83.5483°
revolutions per day: 14.21159463
mean anomaly at epoch: 350.9071°
orbit number at epoch: 59193

The dashed part of the orbit path shows where the satellite is in the earth's shadow,  

DLR